{"data":{"norad_id":57979,"intl_designator":"2023-151R","name":"STARLINK-30508","alt_names":[],"object_type":"PAYLOAD","status":"ACTIVE","operator":null,"country":"US","launch_date":"2023-09-30","launch_site_code":"AFETR","launch_vehicle":null,"mission":null,"orbit_class":"UNKNOWN","rcs_meters":null,"size_class":null,"mass_kg":null,"dimensions":null,"purposes":["comms"],"wikipedia_slug":null,"has_3d_model":false,"image_url":null,"decayed_at":null,"tle_current":{"epoch":"2026-05-24T17:52:43.032000Z","epoch_age_seconds":100272,"freshness":"FRESH","line1":"1 57979U 23151R   26144.74494250 -.00000313  00000+0 -18503-5 0  9991","line2":"2 57979  43.0000 281.2797 0001086 278.4119  81.6609 15.27573103147229","mean_motion":15.27573103,"eccentricity":0.0001086,"inclination_deg":43,"raan_deg":281.2797,"arg_perigee_deg":278.4119,"mean_anomaly_deg":81.6609,"bstar":-1.8503e-6,"rev_number":14722,"period_min":94.267174328481,"perigee_km":482.32462116368,"apogee_km":483.81487526939,"semimajor_km":6861.2067482165,"source":"CELESTRAK","updated_at":"2026-05-25T13:38:18.488004Z"}}}